Regional Weather Roundup
Issued by NWS

Home | Current Version | Previous Version | Text Only | Print | Product List | Glossary Off
Versions: 1 2 3 4 5 6 7 8 9 10 11 12 13 14 15 16 17 18 19 20 21 22 23 24 25 26 27 28 29 30 31 32 33 34 35 36 37 38 39 40 41 42 43 44 45 46 47 48 49 50

000
ASUS43 KMPX 191601
RWRMN
WEATHER ROUNDUP FOR MINNESOTA
NATIONAL WEATHER SERVICE TWIN CITIES/CHANHASSEN MN
1000 AM CST THU JAN 19 2017


NOTE: "FAIR" INDICATES FEW OR NO CLOUDS BELOW 12,000 FEET WITH NO
SIGNIFICANT WEATHER AND/OR OBSTRUCTIONS TO VISIBILITY. N/A MEANS
CURRENT SKY AND/OR WEATHER CONDITIONS ARE NOT AVAILABLE.

MNZ060>063-068>070-191700-
   Twin Cities Metro

CITY           SKY/WX    TMP DP  RH WIND       PRES   REMARKS
TWIN CITIES    SUNNY     36  30  79 SE9       29.81S
ST PAUL        SUNNY     34  32  92 S10       29.83S WCI  26
CRYSTAL        SUNNY     36  30  79 S10       29.79S
BLAINE         SUNNY     37  36  93 SE7       29.79S
LAKEVILLE      SUNNY     30  30 100 SE6       29.81S FOG     WCI  24
EDEN PRAIRIE   SUNNY     36  32  85 SE6       29.79R
SOUTH ST PAUL  SUNNY     34  32  93 S7        29.82R WCI  28
LAKE ELMO      FAIR      34  32  93 S8        29.82S WCI  27
$$
MNZ001>005-007-008-013>017-022>024-027-028-191700-
   Northwest Minnesota

CITY           SKY/WX    TMP DP  RH WIND       PRES   REMARKS
BEMIDJI        CLOUDY    31  31 100 S10       29.66R FOG     WCI  22
HALLOCK        CLOUDY    27  25  93 S18       29.56S FOG     WCI  13
ROSEAU         CLOUDY    30  25  80 S13       29.59R WCI  20
WARROAD        CLOUDY    32  28  86 S3        29.59F
THIEF RVR FALL FOG       30  29  96 S15       29.62S VSB 1/2 WCI  19
CROOKSTON      FOG       30  30 100 S17       29.62S VSB 1/2 WCI  18
FOSSTON        CLOUDY    27  25  93 S6        29.64R FOG     WCI  20
DETROIT LAKES  CLOUDY    34  34 100 S15       29.64F FOG     WCI  24
MOORHEAD       CLOUDY    28  28 100 S7        29.65R WCI  21
PARK RAPIDS    FOG       33  31  92 S8        29.67S VSB 1/4 WCI  26
MAHNOMEN       CLOUDY    32  32 100 S8        29.64S WCI  25
$$
MNZ006-009>011-018-025>026-191700-
   North Central Minnesota

CITY           SKY/WX    TMP DP  RH WIND       PRES   REMARKS
BAUDETTE       CLOUDY    28  24  85 S9        29.62S WCI  19
FLAG ISLAND    CLOUDY    25  21  86 SE14      29.58S WCI  13
INTL FALLS     CLOUDY    30  28  92 S8        29.65S FOG     WCI  22
WASKISH        CLOUDY    32  30  93 S9        29.65R FOG     WCI  24
BIG FORK       FOG       34  32  93 S13       29.67F VSB 1/2 WCI  25
LONGVILLE      FOG       34  34 100 S7        29.69F VSB 1/4 WCI  28
GRAND RAPIDS   MIX PCPN  33  33 100 S9        29.73F VSB 1/4 WCI  25
CRANE LAKE     CLOUDY    28  28 100 S7        29.71F FOG     WCI  21
ORR            FOG       30  28  93 CALM      29.67F VSB 1/2
COOK           FOG       32  32 100 S6        29.71S VSB 1   WCI  26
WALKER         CLOUDY    32  32 100 S9        29.67S FOG     WCI  24
$$
MNZ012-019>021-037-191700-
   Northeast Minnesota

CITY           SKY/WX    TMP DP  RH WIND       PRES   REMARKS
DULUTH         FOG       34  33  96 SW8       29.76S VSB 1/4 WCI  27
ELY            FOG       32  32 100 S12       29.72F VSB 1/2 WCI  23
HIBBING        FOG       31  31 100 S8        29.72F VSB 1/4 WCI  23
EVELETH        FOG       32  32  99 S8        29.74F VSB 1/4 WCI  25
DULUTH HARBOR  SUNNY     37  34  87 SW5       29.80S
TWO HARBORS    CLOUDY    37  32  81 SW6       29.76S HAZE
SILVER BAY     FOG       34  34 100 SW3       29.76F VSB 1/4
G MARAIS ARPRT SNOW      30  28  93 S5        29.77S VSB<1/4 WCI  25
$$
MNZ029>031-032-039>041-046>048-054>057-064-191700-
   West Central Minnesota

CITY           SKY/WX    TMP DP  RH WIND       PRES   REMARKS
FERGUS FALLS   SUNNY     34  34 100 S16       29.68S WCI  23
WHEATON        SUNNY     37  37 100 SE17      29.66S
MORRIS         SUNNY     32  32 100 SE12      29.66F FOG     WCI  23
ALEXANDRIA     SUNNY     34  33  96 S13       29.69S WCI  25
ELBOW LAKE     FAIR      33  32  97 SE16      29.65S FOG     WCI  23
WADENA         SUNNY     34  34 100 SE8       29.67S WCI  27
GLENWOOD       SUNNY     34  34 100 S13       29.70F WCI  25
APPLETON       SUNNY     34  34 100 SE8       29.69S WCI  27
ORTONVILLE     SUNNY     30  28  93 SE8       29.66F FOG     WCI  23
MADISON        SUNNY     36  36 100 SE9       29.68F
WILLMAR        FAIR      30  30 100 SE8       29.74S FOG     WCI  23
$$
MNZ033>034-036-042>043-049>051-058-059-191700-
   Central Minnesota

CITY           SKY/WX    TMP DP  RH WIND       PRES   REMARKS
ST CLOUD       SUNNY     31  31 100 SE6       29.75F FOG     WCI  25
SAUK CENTRE    FAIR      30  30 100 SE8       29.72S WCI  23
PAYNESVILLE    SUNNY     33  33 100 SE8       29.74S FOG     WCI  26
AITKIN         CLOUDY    36  32  87 S8        29.72S FOG
PINE RIVER     DRZL/FOG  34  34 100 SE6       29.74S VSB 1/4 WCI  29
BRAINERD       PTSUNNY   33  32  96 S12       29.72F FOG     WCI  24
STAPLES        MOSUNNY   34  34 100 SE8       29.69S FOG     WCI  27
LONG PRAIRIE   FAIR      30  30 100 SE9       29.71F FOG     WCI  22
LITTLE FALLS   SUNNY     32  32 100 SE8       29.74S FOG     WCI  25
LITCHFIELD     SUNNY     36  34  93 S5        29.76S FOG
BUFFALO        SUNNY     36  32  86 S5        29.78S
MAPLE LAKE     SUNNY     36  35  97 S7        29.77S FOG
HUTCHINSON     CLOUDY    35  34  96 SE7       29.77R FOG     WCI  29
$$
MNZ037-044-045-052-053-191700-
   East Central Minnesota

CITY           SKY/WX    TMP DP  RH WIND       PRES   REMARKS
PRINCETON      SUNNY     34  34 100 CALM      29.77F FOG
MORA           FOG       30  30 100 CALM      29.80S VSB 1/4
CAMBRIDGE      SUNNY     36  30  80 S8        29.76F HAZE
RUSH CITY      SUNNY     34  32  93 S10       29.78F FOG     WCI  26
MOOSE LAKE     CLOUDY    34  32  93 S8        29.76S FOG     WCI  27
HINCKLEY       FAIR      32  32 100 S5        29.79S FOG     WCI  27
CLOQUET        CLOUDY    34  32  93 S8        29.76S FOG     WCI  27
MCGREGOR       CLOUDY    34  34 100 S6        29.75S WCI  29
$$
MNZ071>073-080-081-089-090-097-098-191700-
   Southwest Minnesota

CITY           SKY/WX    TMP DP  RH WIND       PRES   REMARKS
MONTEVIDEO     SUNNY     37  36  93 S7        29.72S
GRANITE FALLS  SUNNY     36  32  87 SE8       29.73S
CANBY          SUNNY     41  36  81 S9        29.69S
MARSHALL       SUNNY     39  34  82 S14       29.70F
REDWOOD FALLS  SUNNY     35  31  85 SE9       29.74S WCI  28
OLIVIA         SUNNY     34  32  93 SE7       29.73S WCI  28
PIPESTONE      SUNNY     36  34  93 S10       29.69F FOG
WINDOM           N/A     36  34  93 S9        29.76R FOG
WORTHINGTON    SUNNY     36  33  89 SE8       29.75R
JACKSON        FOG       32  32 100 S10       29.78R VSB 1/4 WCI  24
TRACY          SUNNY     39  36  86 S13       29.72S
SLAYTON        SUNNY     36  34  92 S10       29.73S
$$
MNZ065>067-074>077-082>085-091>093-191700-
   South Central Minnesota

CITY           SKY/WX    TMP DP  RH WIND       PRES   REMARKS
MANKATO        CLOUDY    32  31  96 S15       29.80R FOG     WCI  22
NEW ULM        FOG       32  32 100 S14       29.77S VSB 1/4 WCI  22
ST JAMES       FOG       32  32 100 SE10      29.79S VSB 1/2 WCI  24
FAIRMONT       CLOUDY    32  32 100 S14       29.79F FOG     WCI  22
GLENCOE        PTSUNNY   35  34  96 S6        29.77R FOG     WCI  30
FARIBAULT      CLOUDY    32  32 100 SE7       29.82S FOG     WCI  26
OWATONNA       FOG       30  30 100 SE13      29.82S VSB 3/4 WCI  20
WASECA         FOG       32  32 100 SE9       29.82S VSB 1/2 WCI  24
ALBERT LEA     FOG       30  30 100 S10       29.82F VSB 1/4 WCI  21
$$
MNZ078>079-086>088-094>096-191700-
   Southeast Minnesota

CITY           SKY/WX    TMP DP  RH WIND       PRES   REMARKS
ROCHESTER      FOG       29  29 100 S13       29.85F VSB 1/4 WCI  19
RED WING       CLOUDY    30  28  93 S8        29.85R FOG     WCI  23
STANTON        CLOUDY    33  31  92 S9        29.82R FOG     WCI  25
DODGE CENTER   FOG       28  28 100 SE8       29.83S VSB 1/4 WCI  20
WINONA         CLOUDY    34  32  93 CALM      29.91R FOG
AUSTIN         FOG       30  28  93 SE8       29.84S VSB<1/4 WCI  23
PRESTON        FOG       29  29  98 S6        29.87F VSB<1/4 WCI  23
$$
ABBREVIATIONS USED IN REMARKS
   TC - TEMPERATURES IN CELSIUS
  WCI - WIND CHILL INDEX
   HX - HEAT INDEX
  VSB - VISIBILITY
$$




USA.gov is the U.S. government's official web portal to all federal, state and local government web resources and services.